Weather in El Chalten

Argentina     49°19′58″S   72°53′04″W
temp.,
°C
wind,
m/s
gust,
m/s
humid.,
%
clouds,
%
prec.,
mm/h
press.,
hPa
HPBL,
m
27 january, wed
wed2700:00−2nw447815 0.1 1010112
03:00−3nw447811 0.1 1009116
06:00−3nw447915 0.1 1008146
09:000nw447311 0.2 1008399
12:00+3nw446643 0.1 1007922
15:00+5nw456368 0.1 10051215
18:00+4nw556195 0.0 10051010
21:00+1nw557275 0.0 1007459
28 january, thu
thu2800:00−1nw557784 0.0 1008225
03:00−2nw567679 0.1 1006219
06:00−2nw667857 0.1 1006287
09:00+1nw567740 0.3 1005553
12:00+4nw567782 0.7 1005704
15:00+5nw566976 0.9 10041032
18:00+5wnw566650 0.1 1005996
21:00+2nw457032 0.1 1005515
29 january, fri
fri2900:000wnw348229 0.0 1007124
03:00−1wnw447733 0.0 1007130
06:00−1wnw4474100 0.0 1008184
09:00+1wnw3468100 0.0 1009317
12:00+4wnw335992 0.0 1010661
15:00+5wnw335656 0.0 1009768
18:00+5wnw32580 0.0 1010633
21:00+2wnw22660 0.0 1011253
30 january, sat
sat3000:000wnw227023 0.0 101473
03:000wnw226511 0.0 101527
06:000wsw11660 0.0 101722
09:00+3ssw11630 0.0 1017280
12:00+7sse11620 0.0 1017726
15:00+9sw11604 0.0 1016913
18:00+10w116044 0.0 1015751
21:00+7wnw226123 0.0 1016203
31 january, sun
sun3100:00+5wnw22570 0.0 101747
03:00+4wnw22550 0.0 101729
06:00+3wnw22590 0.0 101728
09:00+6wnw22570 0.0 1017152
12:00+9w22510 0.0 1016649
15:00+11wnw33451 0.0 1015721
18:00+9wnw445654 0.0 1014439
21:00+5wnw447144 0.0 1016164